Time,TemperatureF,DewpointF,PressureIn,WindDirection,WindDirectionDegrees,WindSpeedMPH,WindSpeedGustMPH,Humidity,HourlyPrecipIn,Conditions,Clouds,dailyrainin,SolarRadiationWatts/m^2,SoftwareType,DateUTC
2013-08-29 00:02:00,78.7,74.5,29.96,ENE,63,0.0,0.0,87,0.00,CLR,,0.00,0.0,WeatherDisplay:10.37,2013-08-29 05:02:00,
2013-08-29 00:07:00,78.7,74.5,29.96,ENE,63,0.0,0.0,87,0.00,CLR,,0.00,0.0,WeatherDisplay:10.37,2013-08-29 05:07:00,
2013-08-29 00:12:00,78.5,74.6,29.96,ENE,63,1.2,0.0,88,0.00,CLR,,0.00,0.0,WeatherDisplay:10.37,2013-08-29 05:12:00,
2013-08-29 00:17:00,78.4,74.5,29.96,ESE,102,3.5,3.5,88,0.00,CLR,,0.00,0.0,WeatherDisplay:10.37,2013-08-29 05:17:00,
2013-08-29 00:22:00,78.2,74.4,29.96,East,83,3.5,3.5,88,0.00,CLR,,0.00,0.0,WeatherDisplay:10.37,2013-08-29 05:22:00,
2013-08-29 00:27:00,78.0,74.2,29.96,ENE,74,5.8,5.8,88,0.00,CLR,,0.00,0.0,WeatherDisplay:10.37,2013-08-29 05:27:00,
2013-08-29 00:32:00,77.9,74.1,29.96,ENE,76,0.0,0.0,88,0.00,CLR,,0.00,0.0,WeatherDisplay:10.37,2013-08-29 05:32:00,
2013-08-29 00:37:00,77.7,74.2,29.97,ENE,69,5.8,5.8,89,0.00,CLR,,0.00,0.0,WeatherDisplay:10.37,2013-08-29 05:37:00,
2013-08-29 00:42:00,77.6,74.1,29.97,East,87,4.6,4.6,89,0.00,CLR,,0.00,0.0,WeatherDisplay:10.37,2013-08-29 05:42:00,
2013-08-29 00:47:00,77.5,74.0,29.97,ENE,69,4.6,4.6,89,0.00,CLR,,0.00,0.0,WeatherDisplay:10.37,2013-08-29 05:47:00,
2013-08-29 00:52:00,77.3,73.8,29.97,ENE,67,5.8,5.8,89,0.00,CLR,,0.00,0.0,WeatherDisplay:10.37,2013-08-29 05:52:00,
2013-08-29 00:57:00,77.2,73.7,29.97,ENE,65,3.5,3.5,89,0.00,CLR,,0.00,0.0,WeatherDisplay:10.37,2013-08-29 05:57:00,
2013-08-29 01:02:00,77.2,73.7,29.97,ENE,65,0.0,0.0,89,0.00,CLR,,0.00,0.0,WeatherDisplay:10.37,2013-08-29 06:02:00,
2013-08-29 01:07:00,77.1,73.6,29.97,ENE,69,5.0,5.0,89,0.00,CLR,,0.00,0.0,WeatherDisplay:10.37,2013-08-29 06:07:00,
2013-08-29 01:12:00,77.0,73.5,29.97,ENE,69,3.5,3.5,89,0.00,CLR,,0.00,0.0,WeatherDisplay:10.37,2013-08-29 06:12:00,
2013-08-29 01:17:00,76.9,73.4,29.96,ENE,69,3.5,3.5,89,0.00,CLR,,0.00,0.0,WeatherDisplay:10.37,2013-08-29 06:17:00,
2013-08-29 01:22:00,76.7,73.5,29.97,ENE,69,0.0,0.0,90,0.00,CLR,,0.00,0.0,WeatherDisplay:10.37,2013-08-29 06:22:00,
2013-08-29 01:27:00,76.6,73.4,29.97,ENE,69,0.0,0.0,90,0.00,CLR,,0.00,0.0,WeatherDisplay:10.37,2013-08-29 06:27:00,
2013-08-29 01:32:00,76.5,73.3,29.97,ENE,68,3.5,3.5,90,0.00,CLR,,0.00,0.0,WeatherDisplay:10.37,2013-08-29 06:32:00,
2013-08-29 01:37:00,76.4,73.2,29.97,ENE,70,3.5,3.5,90,0.00,CLR,,0.00,0.0,WeatherDisplay:10.37,2013-08-29 06:37:00,
2013-08-29 01:42:00,76.3,73.1,29.97,ENE,70,1.0,0.0,90,0.00,CLR,,0.00,0.0,WeatherDisplay:10.37,2013-08-29 06:42:00,
2013-08-29 01:47:00,76.2,73.1,29.97,West,272,0.0,0.0,90,0.00,CLR,,0.00,0.0,WeatherDisplay:10.37,2013-08-29 06:47:00,
2013-08-29 01:52:00,76.1,73.0,29.97,West,261,0.0,0.0,90,0.00,CLR,,0.00,0.0,WeatherDisplay:10.37,2013-08-29 06:52:00,
2013-08-29 01:57:00,76.0,72.9,29.97,West,261,0.0,0.0,90,0.00,CLR,,0.00,0.0,WeatherDisplay:10.37,2013-08-29 06:57:00,
2013-08-29 02:02:00,76.0,73.2,29.97,West,261,0.0,0.0,91,0.00,CLR,,0.00,0.0,WeatherDisplay:10.37,2013-08-29 07:02:00,
2013-08-29 02:07:00,76.0,73.2,29.97,West,261,0.0,0.0,91,0.00,CLR,,0.00,0.0,WeatherDisplay:10.37,2013-08-29 07:07:00,
2013-08-29 02:12:00,75.9,73.1,29.97,West,260,0.0,0.0,91,0.00,CLR,,0.00,0.0,WeatherDisplay:10.37,2013-08-29 07:12:00,
2013-08-29 02:17:00,75.9,73.1,29.97,West,260,0.0,0.0,91,0.00,CLR,,0.00,0.0,WeatherDisplay:10.37,2013-08-29 07:17:00,
2013-08-29 02:22:00,75.8,73.0,29.97,West,261,0.0,0.0,91,0.00,CLR,,0.00,0.0,WeatherDisplay:10.37,2013-08-29 07:22:00,
2013-08-29 02:27:00,75.7,72.9,29.97,West,261,0.0,0.0,91,0.00,CLR,,0.00,0.0,WeatherDisplay:10.37,2013-08-29 07:27:00,
2013-08-29 02:32:00,75.6,72.8,29.97,West,260,0.0,0.0,91,0.00,CLR,,0.00,0.0,WeatherDisplay:10.37,2013-08-29 07:32:00,
2013-08-29 02:37:00,75.5,72.7,29.97,West,261,0.0,0.0,91,0.00,CLR,,0.00,0.0,WeatherDisplay:10.37,2013-08-29 07:37:00,
2013-08-29 02:42:00,75.4,72.6,29.97,West,260,0.0,0.0,91,0.00,CLR,,0.00,0.0,WeatherDisplay:10.37,2013-08-29 07:42:00,
2013-08-29 02:48:00,75.3,72.5,29.98,West,261,3.5,3.5,91,0.00,CLR,,0.00,0.0,WeatherDisplay:10.37,2013-08-29 07:48:00,
2013-08-29 02:53:00,75.2,72.4,29.98,West,267,0.0,0.0,91,0.00,CLR,,0.00,0.0,WeatherDisplay:10.37,2013-08-29 07:53:00,
2013-08-29 02:58:00,75.2,72.4,29.97,West,267,0.0,0.0,91,0.00,CLR,,0.00,0.0,WeatherDisplay:10.37,2013-08-29 07:58:00,
2013-08-29 03:03:00,75.1,72.3,29.98,West,267,0.0,0.0,91,0.00,CLR,,0.00,0.0,WeatherDisplay:10.37,2013-08-29 08:03:00,
2013-08-29 03:08:00,75.1,72.3,29.98,West,267,0.0,0.0,91,0.00,CLR,,0.00,0.0,WeatherDisplay:10.37,2013-08-29 08:08:00,
2013-08-29 03:13:00,75.0,72.2,29.98,West,267,0.0,0.0,91,0.00,CLR,,0.00,0.0,WeatherDisplay:10.37,2013-08-29 08:13:00,
2013-08-29 03:18:00,74.9,72.1,29.98,West,267,0.0,0.0,91,0.00,CLR,,0.00,0.0,WeatherDisplay:10.37,2013-08-29 08:18:00,
2013-08-29 03:23:00,74.8,72.0,29.98,West,267,0.0,0.0,91,0.00,CLR,,0.00,0.0,WeatherDisplay:10.37,2013-08-29 08:23:00,
2013-08-29 03:28:00,74.8,72.0,29.98,West,267,0.0,0.0,91,0.00,CLR,,0.00,0.0,WeatherDisplay:10.37,2013-08-29 08:28:00,
2013-08-29 03:33:00,74.7,71.9,29.98,West,267,0.0,0.0,91,0.00,CLR,,0.00,0.0,WeatherDisplay:10.37,2013-08-29 08:33:00,
2013-08-29 03:38:00,74.6,71.8,29.98,West,267,0.0,0.0,91,0.00,CLR,,0.00,0.0,WeatherDisplay:10.37,2013-08-29 08:38:00,
2013-08-29 03:43:00,74.6,71.8,29.98,West,267,0.0,0.0,91,0.00,CLR,,0.00,0.0,WeatherDisplay:10.37,2013-08-29 08:43:00,
2013-08-29 03:48:00,74.5,71.7,29.98,West,267,0.0,0.0,91,0.00,CLR,,0.00,0.0,WeatherDisplay:10.37,2013-08-29 08:48:00,
2013-08-29 03:53:00,74.4,71.6,29.98,West,267,0.0,0.0,91,0.00,CLR,,0.00,0.0,WeatherDisplay:10.37,2013-08-29 08:53:00,
2013-08-29 03:58:00,74.3,71.5,29.98,West,267,0.0,0.0,91,0.00,CLR,,0.00,0.0,WeatherDisplay:10.37,2013-08-29 08:58:00,
2013-08-29 04:03:00,74.2,71.4,29.98,West,267,0.0,0.0,91,0.00,CLR,,0.00,0.0,WeatherDisplay:10.37,2013-08-29 09:03:00,
2013-08-29 04:08:00,74.1,71.3,29.98,West,267,0.0,0.0,91,0.00,CLR,,0.00,0.0,WeatherDisplay:10.37,2013-08-29 09:08:00,
2013-08-29 04:13:00,74.0,71.2,29.98,West,267,0.0,0.0,91,0.00,CLR,,0.00,0.0,WeatherDisplay:10.37,2013-08-29 09:13:00,
2013-08-29 04:18:00,73.8,71.0,29.98,West,267,0.0,0.0,91,0.00,CLR,,0.00,0.0,WeatherDisplay:10.37,2013-08-29 09:18:00,
2013-08-29 04:23:00,73.8,71.0,29.98,West,267,0.0,0.0,91,0.00,CLR,,0.00,0.0,WeatherDisplay:10.37,2013-08-29 09:23:00,
2013-08-29 04:28:00,73.7,70.9,29.98,West,267,0.0,0.0,91,0.00,CLR,,0.00,0.0,WeatherDisplay:10.37,2013-08-29 09:28:00,
2013-08-29 04:33:00,73.6,70.8,29.98,West,267,0.0,0.0,91,0.00,CLR,,0.00,0.0,WeatherDisplay:10.37,2013-08-29 09:33:00,
2013-08-29 04:38:00,73.5,70.7,29.98,West,267,0.0,0.0,91,0.00,CLR,,0.00,0.0,WeatherDisplay:10.37,2013-08-29 09:38:00,
2013-08-29 04:43:00,73.5,71.0,29.98,West,267,0.0,0.0,92,0.00,CLR,,0.00,0.0,WeatherDisplay:10.37,2013-08-29 09:43:00,
2013-08-29 04:48:00,73.4,70.9,29.98,West,267,0.0,0.0,92,0.00,CLR,,0.00,0.0,WeatherDisplay:10.37,2013-08-29 09:48:00,
2013-08-29 04:53:00,73.4,70.6,29.99,West,267,0.0,0.0,91,0.00,CLR,,0.00,0.0,WeatherDisplay:10.37,2013-08-29 09:53:00,
2013-08-29 04:58:00,73.3,70.5,29.98,West,267,0.0,0.0,91,0.00,CLR,,0.00,0.0,WeatherDisplay:10.37,2013-08-29 09:58:00,
2013-08-29 05:03:00,73.2,70.4,29.98,West,267,0.0,0.0,91,0.00,CLR,,0.00,0.0,WeatherDisplay:10.37,2013-08-29 10:03:00,
2013-08-29 05:08:00,73.2,70.4,29.98,West,267,0.0,0.0,91,0.00,CLR,,0.00,0.0,WeatherDisplay:10.37,2013-08-29 10:08:00,
2013-08-29 05:13:00,73.1,70.3,29.99,West,267,0.0,0.0,91,0.00,CLR,,0.00,0.0,WeatherDisplay:10.37,2013-08-29 10:13:00,
2013-08-29 05:18:00,73.0,70.2,29.99,West,267,0.0,0.0,91,0.00,CLR,,0.00,0.0,WeatherDisplay:10.37,2013-08-29 10:18:00,
2013-08-29 05:23:00,73.0,70.2,29.98,West,267,0.0,0.0,91,0.00,CLR,,0.00,0.0,WeatherDisplay:10.37,2013-08-29 10:23:00,
2013-08-29 05:28:00,72.9,70.1,29.99,West,267,0.0,0.0,91,0.00,CLR,,0.00,0.0,WeatherDisplay:10.37,2013-08-29 10:28:00,
2013-08-29 05:33:00,72.8,70.0,29.99,West,267,0.0,0.0,91,0.00,CLR,,0.00,0.0,WeatherDisplay:10.37,2013-08-29 10:33:00,
2013-08-29 05:38:00,72.8,70.0,29.98,West,267,0.0,0.0,91,0.00,CLR,,0.00,0.0,WeatherDisplay:10.37,2013-08-29 10:38:00,
2013-08-29 05:43:00,72.9,70.1,29.98,West,267,0.0,0.0,91,0.00,CLR,,0.00,0.0,WeatherDisplay:10.37,2013-08-29 10:43:00,
2013-08-29 05:48:00,72.9,70.4,29.98,West,267,0.0,0.0,92,0.00,CLR,,0.00,0.0,WeatherDisplay:10.37,2013-08-29 10:48:00,
2013-08-29 05:53:00,72.9,70.4,29.98,West,267,0.0,0.0,92,0.00,CLR,,0.00,0.0,WeatherDisplay:10.37,2013-08-29 10:53:00,
2013-08-29 05:58:00,73.0,70.5,29.99,West,267,0.0,0.0,92,0.00,CLR,,0.00,0.0,WeatherDisplay:10.37,2013-08-29 10:58:00,
2013-08-29 06:03:00,72.9,70.4,29.99,West,267,0.0,0.0,92,0.00,CLR,,0.00,0.0,WeatherDisplay:10.37,2013-08-29 11:03:00,
2013-08-29 06:08:00,72.9,70.4,29.99,West,267,0.0,0.0,92,0.00,CLR,,0.00,0.0,WeatherDisplay:10.37,2013-08-29 11:08:00,
2013-08-29 06:13:00,72.8,70.3,29.99,West,267,0.0,0.0,92,0.00,CLR,,0.00,0.0,WeatherDisplay:10.37,2013-08-29 11:13:00,
2013-08-29 06:18:00,72.8,70.3,29.99,West,267,0.0,0.0,92,0.00,CLR,,0.00,0.0,WeatherDisplay:10.37,2013-08-29 11:18:00,
2013-08-29 06:23:00,72.7,70.2,29.99,West,267,0.0,0.0,92,0.00,OVC,,0.00,0.0,WeatherDisplay:10.37,2013-08-29 11:23:00,
2013-08-29 06:28:00,72.7,70.2,29.99,West,268,0.0,0.0,92,0.00,BKN,,0.00,7.0,WeatherDisplay:10.37,2013-08-29 11:28:00,
2013-08-29 06:33:00,72.6,70.1,29.99,West,268,0.0,0.0,92,0.00,BKN,,0.00,12.0,WeatherDisplay:10.37,2013-08-29 11:33:00,
2013-08-29 06:38:00,72.5,70.0,30.00,West,270,0.0,0.0,92,0.00,BKN,,0.00,18.0,WeatherDisplay:10.37,2013-08-29 11:38:00,
2013-08-29 06:43:00,72.5,70.0,30.00,West,269,0.0,0.0,92,0.00,BKN,,0.00,21.0,WeatherDisplay:10.37,2013-08-29 11:43:00,
2013-08-29 06:48:00,72.4,69.9,30.00,West,270,0.0,0.0,92,0.00,BKN,,0.00,30.0,WeatherDisplay:10.37,2013-08-29 11:48:00,
2013-08-29 06:53:00,72.3,69.8,30.00,West,269,0.0,0.0,92,0.00,BKN,,0.00,49.0,WeatherDisplay:10.37,2013-08-29 11:53:00,
2013-08-29 06:58:00,72.3,69.8,30.00,West,269,0.0,0.0,92,0.00,BKN,,0.00,67.0,WeatherDisplay:10.37,2013-08-29 11:58:00,
2013-08-29 07:03:00,72.3,69.8,30.00,West,270,0.0,0.0,92,0.00,BKN,,0.00,77.0,WeatherDisplay:10.37,2013-08-29 12:03:00,
2013-08-29 07:08:00,72.1,69.6,30.01,NE,46,4.6,4.6,92,0.00,SCT,,0.00,90.0,WeatherDisplay:10.37,2013-08-29 12:08:00,
2013-08-29 07:13:00,72.0,69.5,30.01,NE,46,0.0,0.0,92,0.00,BKN,,0.00,93.0,WeatherDisplay:10.37,2013-08-29 12:13:00,
2013-08-29 07:18:00,71.9,69.4,30.01,NE,47,0.0,0.3,92,0.00,BKN,,0.00,77.0,WeatherDisplay:10.37,2013-08-29 12:18:00,
2013-08-29 07:23:00,71.9,69.4,30.01,NE,49,0.0,0.0,92,0.00,BKN,,0.00,83.0,WeatherDisplay:10.37,2013-08-29 12:23:00,
2013-08-29 07:28:00,71.9,69.1,30.01,NE,56,0.0,0.0,91,0.00,BKN,,0.00,104.0,WeatherDisplay:10.37,2013-08-29 12:28:00,
2013-08-29 07:33:00,72.0,69.5,30.01,NE,56,0.0,0.0,92,0.00,BKN,,0.00,114.0,WeatherDisplay:10.37,2013-08-29 12:33:00,
2013-08-29 07:38:00,72.1,69.6,30.01,NE,56,0.0,0.0,92,0.00,BKN,,0.00,121.0,WeatherDisplay:10.37,2013-08-29 12:38:00,
2013-08-29 07:43:00,72.2,69.4,30.01,ESE,103,4.6,4.6,91,0.00,BKN,,0.00,137.0,WeatherDisplay:10.37,2013-08-29 12:43:00,
2013-08-29 07:48:00,72.2,69.4,30.01,ESE,104,0.0,0.0,91,0.00,BKN,,0.00,111.0,WeatherDisplay:10.37,2013-08-29 12:48:00,
2013-08-29 07:54:00,72.4,69.6,30.01,East,86,8.1,8.1,91,0.00,BKN,,0.00,118.0,WeatherDisplay:10.37,2013-08-29 12:54:00,
2013-08-29 07:59:00,72.2,69.1,30.01,East,86,4.6,4.6,90,0.00,BKN,,0.00,127.0,WeatherDisplay:10.37,2013-08-29 12:59:00,
2013-08-29 08:04:00,72.2,69.1,30.01,East,82,0.0,1.4,90,0.00,BKN,,0.00,91.0,WeatherDisplay:10.37,2013-08-29 13:04:00,
2013-08-29 08:09:00,72.2,69.1,30.02,ENE,59,8.1,8.1,90,0.00,BKN,,0.00,77.0,WeatherDisplay:10.37,2013-08-29 13:09:00,
2013-08-29 08:14:00,71.8,68.7,30.02,ENE,71,9.2,9.2,90,0.00,BKN,,0.00,62.0,WeatherDisplay:10.37,2013-08-29 13:14:00,
2013-08-29 08:19:00,71.4,68.3,30.02,ENE,59,9.2,9.2,90,0.00,BKN,,0.00,69.0,WeatherDisplay:10.37,2013-08-29 13:19:00,
2013-08-29 08:24:00,71.3,68.5,30.02,ENE,78,1.2,0.0,91,0.00,BKN,,0.00,109.0,WeatherDisplay:10.37,2013-08-29 13:24:00,
2013-08-29 08:29:00,71.3,68.9,30.02,ENE,76,5.8,5.8,92,0.00,BKN,,0.00,192.0,WeatherDisplay:10.37,2013-08-29 13:29:00,
2013-08-29 08:34:00,71.3,68.9,30.02,East,86,6.9,6.9,92,0.00,BKN,,0.00,195.0,WeatherDisplay:10.37,2013-08-29 13:34:00,
2013-08-29 08:39:00,71.5,69.1,30.02,East,83,0.0,0.0,92,0.00,BKN,,0.00,186.0,WeatherDisplay:10.37,2013-08-29 13:39:00,
2013-08-29 08:44:00,71.7,69.3,30.02,East,84,0.0,0.0,92,0.00,BKN,,0.00,149.0,WeatherDisplay:10.37,2013-08-29 13:44:00,
2013-08-29 08:49:00,71.8,69.3,30.02,ENE,68,6.9,6.9,92,0.00,BKN,,0.00,107.0,WeatherDisplay:10.37,2013-08-29 13:49:00,
2013-08-29 08:54:00,71.7,69.3,30.03,ENE,78,6.0,6.0,92,0.00,BKN,,0.00,105.0,WeatherDisplay:10.37,2013-08-29 13:54:00,
2013-08-29 08:59:00,71.6,69.2,30.03,ENE,76,3.0,3.0,92,0.00,BKN,,0.00,130.0,WeatherDisplay:10.37,2013-08-29 13:59:00,
2013-08-29 09:04:00,71.6,69.5,30.03,ENE,75,4.6,4.6,93,0.00,BKN,,0.00,128.0,WeatherDisplay:10.37,2013-08-29 14:04:00,
2013-08-29 09:09:00,71.5,69.4,30.03,NE,48,5.8,5.8,93,0.00,BKN,,0.00,121.0,WeatherDisplay:10.37,2013-08-29 14:09:00,
2013-08-29 09:14:00,71.5,69.4,30.03,ENE,74,4.6,4.6,93,0.00,BKN,,0.00,137.0,WeatherDisplay:10.37,2013-08-29 14:14:00,
2013-08-29 09:19:00,71.5,69.4,30.03,East,97,3.5,0.0,93,0.00,BKN,,0.00,125.0,WeatherDisplay:10.37,2013-08-29 14:19:00,
2013-08-29 09:24:00,71.5,69.4,30.03,East,84,3.5,3.5,93,0.00,BKN,,0.00,98.0,WeatherDisplay:10.37,2013-08-29 14:24:00,
2013-08-29 09:29:00,71.6,69.5,30.03,East,84,0.0,0.0,93,0.00,BKN,,0.00,98.0,WeatherDisplay:10.37,2013-08-29 14:29:00,
2013-08-29 09:34:00,71.8,69.7,30.03,ENE,75,4.6,4.6,93,0.00,BKN,,0.00,158.0,WeatherDisplay:10.37,2013-08-29 14:34:00,
2013-08-29 09:39:00,71.9,69.8,30.03,ENE,75,3.5,3.5,93,0.00,BKN,,0.00,155.0,WeatherDisplay:10.37,2013-08-29 14:39:00,
2013-08-29 09:44:00,72.0,69.9,30.04,ENE,73,4.6,4.6,93,0.00,BKN,,0.00,192.0,WeatherDisplay:10.37,2013-08-29 14:44:00,
2013-08-29 09:49:00,72.2,70.1,30.04,ENE,67,0.0,0.0,93,0.00,BKN,,0.00,322.0,WeatherDisplay:10.37,2013-08-29 14:49:00,
2013-08-29 09:54:00,72.6,70.5,30.04,ENE,67,0.0,0.0,93,0.00,BKN,,0.00,206.0,WeatherDisplay:10.37,2013-08-29 14:54:00,
2013-08-29 09:59:00,72.9,70.8,30.03,ENE,67,0.0,0.0,93,0.00,BKN,,0.00,218.0,WeatherDisplay:10.37,2013-08-29 14:59:00,
2013-08-29 10:04:00,73.3,71.2,30.04,ENE,67,0.0,0.0,93,0.00,BKN,,0.00,216.0,WeatherDisplay:10.37,2013-08-29 15:04:00,
2013-08-29 10:09:00,73.6,71.1,30.03,ENE,68,0.0,0.0,92,0.00,BKN,,0.00,169.0,WeatherDisplay:10.37,2013-08-29 15:09:00,
2013-08-29 10:14:00,73.6,71.1,30.03,ENE,67,0.0,0.0,92,0.00,BKN,,0.00,181.0,WeatherDisplay:10.37,2013-08-29 15:14:00,
2013-08-29 10:19:00,73.7,70.9,30.03,ENE,68,6.9,6.9,91,0.00,BKN,,0.00,269.0,WeatherDisplay:10.37,2013-08-29 15:19:00,
2013-08-29 10:24:00,73.8,71.0,30.03,ENE,68,0.0,0.3,91,0.00,BKN,,0.00,306.0,WeatherDisplay:10.37,2013-08-29 15:24:00,
2013-08-29 10:29:00,74.0,71.2,30.03,ENE,68,3.5,3.5,91,0.00,BKN,,0.00,345.0,WeatherDisplay:10.37,2013-08-29 15:29:00,
2013-08-29 10:34:00,74.3,71.5,30.04,ENE,68,0.0,0.0,91,0.00,BKN,,0.00,357.0,WeatherDisplay:10.37,2013-08-29 15:34:00,
2013-08-29 10:39:00,74.9,72.1,30.04,ENE,68,0.0,0.0,91,0.00,BKN,,0.00,295.0,WeatherDisplay:10.37,2013-08-29 15:39:00,
2013-08-29 10:44:00,75.3,71.8,30.04,ENE,68,3.5,3.5,89,0.00,BKN,,0.00,306.0,WeatherDisplay:10.37,2013-08-29 15:44:00,
2013-08-29 10:49:00,75.7,72.2,30.03,ENE,67,4.6,4.6,89,0.00,BKN,,0.00,297.0,WeatherDisplay:10.37,2013-08-29 15:49:00,
2013-08-29 10:54:00,75.9,72.1,30.03,ENE,67,3.5,3.5,88,0.00,BKN,,0.00,325.0,WeatherDisplay:10.37,2013-08-29 15:54:00,
2013-08-29 10:59:00,76.2,72.0,30.03,ENE,65,3.5,3.5,87,0.00,BKN,,0.00,308.0,WeatherDisplay:10.37,2013-08-29 15:59:00,
2013-08-29 11:04:00,76.4,72.2,30.04,ENE,71,3.5,3.5,87,0.00,BKN,,0.00,369.0,WeatherDisplay:10.37,2013-08-29 16:04:00,
2013-08-29 11:09:00,76.6,72.1,30.03,ENE,59,6.9,6.9,86,0.00,BKN,,0.00,329.0,WeatherDisplay:10.37,2013-08-29 16:09:00,
2013-08-29 11:14:00,76.7,72.2,30.03,ENE,61,3.5,0.0,86,0.00,BKN,,0.00,304.0,WeatherDisplay:10.37,2013-08-29 16:14:00,
2013-08-29 11:20:00,77.0,72.5,30.03,ENE,62,0.0,0.0,86,0.00,BKN,,0.00,209.0,WeatherDisplay:10.37,2013-08-29 16:20:00,
2013-08-29 11:25:00,77.3,72.4,30.03,ENE,61,3.5,3.5,85,0.00,BKN,,0.00,223.0,WeatherDisplay:10.37,2013-08-29 16:25:00,
2013-08-29 11:30:00,77.6,72.7,30.03,ENE,61,0.0,0.0,85,0.00,BKN,,0.00,279.0,WeatherDisplay:10.37,2013-08-29 16:30:00,
2013-08-29 11:35:00,77.7,72.5,30.03,ENE,65,0.0,0.0,84,0.00,BKN,,0.00,373.0,WeatherDisplay:10.37,2013-08-29 16:35:00,
2013-08-29 11:40:00,78.2,73.0,30.02,ENE,64,0.0,0.0,84,0.00,SCT,,0.00,784.0,WeatherDisplay:10.37,2013-08-29 16:40:00,
2013-08-29 11:45:00,78.7,73.1,30.02,East,89,0.0,0.0,83,0.00,FEW,,0.00,833.0,WeatherDisplay:10.37,2013-08-29 16:45:00,
2013-08-29 11:50:00,79.2,73.6,30.03,East,85,3.5,3.5,83,0.00,FEW,,0.00,854.0,WeatherDisplay:10.37,2013-08-29 16:50:00,
2013-08-29 11:55:00,79.7,73.7,30.03,ENE,78,3.5,3.5,82,0.00,SCT,,0.00,584.0,WeatherDisplay:10.37,2013-08-29 16:55:00,
2013-08-29 12:00:00,80.2,73.5,30.03,ENE,73,5.8,5.8,80,0.00,SCT,,0.00,545.0,WeatherDisplay:10.37,2013-08-29 17:00:00,
2013-08-29 12:05:00,80.6,73.5,30.03,ENE,69,0.0,0.1,79,0.00,SCT,,0.00,575.0,WeatherDisplay:10.37,2013-08-29 17:05:00,
2013-08-29 12:10:00,80.9,73.8,30.02,ENE,67,4.6,4.6,79,0.00,SCT,,0.00,534.0,WeatherDisplay:10.37,2013-08-29 17:10:00,
2013-08-29 12:15:00,81.1,73.6,30.03,ENE,73,5.0,5.0,78,0.00,SCT,,0.00,469.0,WeatherDisplay:10.37,2013-08-29 17:15:00,
2013-08-29 12:20:00,81.2,73.7,30.03,ENE,74,1.2,1.2,78,0.00,BKN,,0.00,468.0,WeatherDisplay:10.37,2013-08-29 17:20:00,
2013-08-29 12:25:00,81.1,73.6,30.02,ENE,76,4.6,4.6,78,0.00,BKN,,0.00,490.0,WeatherDisplay:10.37,2013-08-29 17:25:00,
2013-08-29 12:30:00,81.1,73.6,30.02,ENE,71,6.9,6.9,78,0.00,BKN,,0.00,475.0,WeatherDisplay:10.37,2013-08-29 17:30:00,
2013-08-29 12:35:00,81.2,73.3,30.02,East,89,0.0,0.0,77,0.00,BKN,,0.00,499.0,WeatherDisplay:10.37,2013-08-29 17:35:00,
2013-08-29 12:40:00,81.5,74.0,30.02,East,79,0.0,0.0,78,0.00,BKN,,0.00,524.0,WeatherDisplay:10.37,2013-08-29 17:40:00,
2013-08-29 12:45:00,81.7,74.2,30.02,ENE,62,9.0,9.0,78,0.00,BKN,,0.00,527.0,WeatherDisplay:10.37,2013-08-29 17:45:00,
2013-08-29 12:50:00,81.6,73.7,30.01,ENE,69,4.6,4.6,77,0.00,BKN,,0.00,561.0,WeatherDisplay:10.37,2013-08-29 17:50:00,
2013-08-29 12:55:00,81.9,74.0,30.01,ENE,69,6.9,6.9,77,0.00,SCT,,0.00,652.0,WeatherDisplay:10.37,2013-08-29 17:55:00,
2013-08-29 13:00:00,81.9,74.0,30.01,ENE,69,4.6,4.6,77,0.00,SCT,,0.00,656.0,WeatherDisplay:10.37,2013-08-29 18:00:00,
2013-08-29 13:05:00,82.2,74.3,30.01,ENE,74,0.0,0.0,77,0.00,SCT,,0.00,742.0,WeatherDisplay:10.37,2013-08-29 18:05:00,
2013-08-29 13:10:00,82.5,74.2,30.00,ENE,78,0.0,0.0,76,0.00,SCT,,0.00,601.0,WeatherDisplay:10.37,2013-08-29 18:10:00,
2013-08-29 13:15:00,83.4,75.0,30.00,ESE,117,0.0,0.0,76,0.00,SCT,,0.00,664.0,WeatherDisplay:10.37,2013-08-29 18:15:00,
2013-08-29 13:20:00,84.1,74.9,30.00,ESE,107,0.0,0.0,74,0.00,SCT,,0.00,654.0,WeatherDisplay:10.37,2013-08-29 18:20:00,
2013-08-29 13:25:00,84.4,74.8,30.00,ESE,105,0.0,0.0,73,0.00,SCT,,0.00,842.0,WeatherDisplay:10.37,2013-08-29 18:25:00,
2013-08-29 13:30:00,85.2,75.6,30.00,SE,130,1.2,1.2,73,0.00,FEW,,0.00,842.0,WeatherDisplay:10.37,2013-08-29 18:30:00,
2013-08-29 13:35:00,85.8,75.3,30.00,SE,132,0.0,0.1,71,0.00,FEW,,0.00,663.0,WeatherDisplay:10.37,2013-08-29 18:35:00,
2013-08-29 13:40:00,86.5,76.0,30.00,SSE,161,4.6,4.6,71,0.00,SCT,,0.00,459.0,WeatherDisplay:10.37,2013-08-29 18:40:00,
2013-08-29 13:45:00,87.2,76.2,30.00,SSE,157,5.8,5.8,70,0.00,SCT,,0.00,842.0,WeatherDisplay:10.37,2013-08-29 18:45:00,
2013-08-29 13:50:00,87.7,76.3,29.99,SSE,157,0.0,0.0,69,0.00,SCT,,0.00,802.0,WeatherDisplay:10.37,2013-08-29 18:50:00,
2013-08-29 13:55:00,88.4,76.5,29.99,SSE,157,0.0,0.0,68,0.00,FEW,,0.00,823.0,WeatherDisplay:10.37,2013-08-29 18:55:00,
2013-08-29 14:00:00,88.9,76.1,29.99,SE,126,0.0,0.0,66,0.00,FEW,,0.00,793.0,WeatherDisplay:10.37,2013-08-29 19:00:00,
2013-08-29 14:05:00,89.3,76.4,29.98,ENE,74,5.8,5.8,66,0.00,FEW,,0.00,789.0,WeatherDisplay:10.37,2013-08-29 19:05:00,
2013-08-29 14:10:00,89.9,77.0,29.98,SE,134,0.0,0.0,66,0.00,FEW,,0.00,784.0,WeatherDisplay:10.37,2013-08-29 19:10:00,
2013-08-29 14:15:00,90.2,76.4,29.98,ESE,123,0.0,0.1,64,0.00,FEW,,0.00,784.0,WeatherDisplay:10.37,2013-08-29 19:15:00,
2013-08-29 14:20:00,90.1,76.7,29.98,ENE,73,0.0,2.3,65,0.00,FEW,,0.00,765.0,WeatherDisplay:10.37,2013-08-29 19:20:00,
2013-08-29 14:25:00,90.3,76.9,29.98,ENE,69,0.0,0.0,65,0.00,FEW,,0.00,793.0,WeatherDisplay:10.37,2013-08-29 19:25:00,
2013-08-29 14:30:00,91.0,77.1,29.97,SE,129,2.3,2.3,64,0.00,FEW,,0.00,475.0,WeatherDisplay:10.37,2013-08-29 19:30:00,
2013-08-29 14:35:00,91.5,77.1,29.97,SE,130,2.0,2.0,63,0.00,FEW,,0.00,759.0,WeatherDisplay:10.37,2013-08-29 19:35:00,
2013-08-29 14:40:00,91.2,76.8,29.97,ENE,71,6.9,6.9,63,0.00,FEW,,0.00,754.0,WeatherDisplay:10.37,2013-08-29 19:40:00,
2013-08-29 14:45:00,91.3,77.9,29.97,SE,125,0.0,1.1,65,0.00,FEW,,0.00,744.0,WeatherDisplay:10.37,2013-08-29 19:45:00,
2013-08-29 14:50:00,91.8,77.9,29.97,SSE,162,0.0,1.0,64,0.00,FEW,,0.00,722.0,WeatherDisplay:10.37,2013-08-29 19:50:00,
2013-08-29 14:55:00,91.7,76.8,29.97,ENE,72,6.9,0.0,62,0.00,FEW,,0.00,722.0,WeatherDisplay:10.37,2013-08-29 19:55:00,
2013-08-29 15:00:00,91.4,77.0,29.97,SSE,152,1.2,0.0,63,0.00,FEW,,0.00,708.0,WeatherDisplay:10.37,2013-08-29 20:00:00,
2013-08-29 15:05:00,92.0,77.1,29.96,SSE,152,0.0,0.0,62,0.00,FEW,,0.00,694.0,WeatherDisplay:10.37,2013-08-29 20:05:00,
2013-08-29 15:10:00,92.3,77.4,29.96,SE,140,0.0,0.0,62,0.00,FEW,,0.00,687.0,WeatherDisplay:10.37,2013-08-29 20:10:00,
2013-08-29 15:15:00,91.9,77.0,29.96,East,94,0.0,0.0,62,0.00,FEW,,0.00,679.0,WeatherDisplay:10.37,2013-08-29 20:15:00,
2013-08-29 15:20:00,92.0,77.1,29.96,SSE,149,5.8,0.0,62,0.00,FEW,,0.00,663.0,WeatherDisplay:10.37,2013-08-29 20:20:00,
2013-08-29 15:25:00,92.4,77.5,29.96,SSE,153,0.0,0.0,62,0.00,FEW,,0.00,643.0,WeatherDisplay:10.37,2013-08-29 20:25:00,
2013-08-29 15:31:00,92.7,77.3,29.96,SE,130,1.2,0.0,61,0.00,FEW,,0.00,642.0,WeatherDisplay:10.37,2013-08-29 20:31:00,
2013-08-29 15:36:00,92.2,77.8,29.96,SE,128,0.0,0.0,63,0.00,FEW,,0.00,629.0,WeatherDisplay:10.37,2013-08-29 20:36:00,
2013-08-29 15:41:00,92.4,77.5,29.96,SE,126,2.3,2.3,62,0.00,FEW,,0.00,617.0,WeatherDisplay:10.37,2013-08-29 20:41:00,
2013-08-29 15:46:00,92.9,77.5,29.96,SE,126,3.5,0.0,61,0.00,FEW,,0.00,605.0,WeatherDisplay:10.37,2013-08-29 20:46:00,
2013-08-29 15:51:00,93.5,78.0,29.95,SE,125,0.0,0.0,61,0.00,SCT,,0.00,589.0,WeatherDisplay:10.37,2013-08-29 20:51:00,
2013-08-29 15:56:00,94.0,77.5,29.95,SE,125,0.0,0.0,59,0.00,SCT,,0.00,580.0,WeatherDisplay:10.37,2013-08-29 20:56:00,
2013-08-29 16:01:00,94.0,77.5,29.95,ENE,63,3.5,3.5,59,0.00,SCT,,0.00,561.0,WeatherDisplay:10.37,2013-08-29 21:01:00,
2013-08-29 16:06:00,93.5,77.5,29.95,ENE,63,4.6,4.6,60,0.00,SCT,,0.00,550.0,WeatherDisplay:10.37,2013-08-29 21:06:00,
2013-08-29 16:11:00,93.7,77.7,29.95,East,98,1.2,0.0,60,0.00,SCT,,0.00,538.0,WeatherDisplay:10.37,2013-08-29 21:11:00,
2013-08-29 16:16:00,92.8,76.9,29.95,ENE,68,5.8,5.8,60,0.00,SCT,,0.00,524.0,WeatherDisplay:10.37,2013-08-29 21:16:00,
2013-08-29 16:21:00,92.0,77.1,29.95,East,80,0.0,0.0,62,0.00,SCT,,0.00,512.0,WeatherDisplay:10.37,2013-08-29 21:21:00,
2013-08-29 16:26:00,91.0,76.7,29.95,East,80,6.9,6.9,63,0.00,SCT,,0.00,497.0,WeatherDisplay:10.37,2013-08-29 21:26:00,
2013-08-29 16:31:00,90.8,76.9,29.95,East,87,9.2,9.2,64,0.00,SCT,,0.00,483.0,WeatherDisplay:10.37,2013-08-29 21:31:00,
2013-08-29 16:36:00,91.0,77.1,29.95,East,88,0.0,0.0,64,0.00,SCT,,0.00,469.0,WeatherDisplay:10.37,2013-08-29 21:36:00,
2013-08-29 16:41:00,91.7,77.3,29.94,East,84,0.0,0.0,63,0.00,SCT,,0.00,457.0,WeatherDisplay:10.37,2013-08-29 21:41:00,
2013-08-29 16:46:00,91.2,76.8,29.94,ENE,73,5.8,5.8,63,0.00,SCT,,0.00,439.0,WeatherDisplay:10.37,2013-08-29 21:46:00,
2013-08-29 16:51:00,91.0,77.6,29.94,East,94,0.0,0.0,65,0.00,SCT,,0.00,422.0,WeatherDisplay:10.37,2013-08-29 21:51:00,
2013-08-29 16:56:00,91.5,77.6,29.94,East,86,0.0,0.0,64,0.00,SCT,,0.00,410.0,WeatherDisplay:10.37,2013-08-29 21:56:00,
2013-08-29 17:01:00,91.9,77.0,29.94,East,87,1.2,0.0,62,0.00,SCT,,0.00,394.0,WeatherDisplay:10.37,2013-08-29 22:01:00,
2013-08-29 17:06:00,92.2,77.3,29.94,SSE,163,0.0,0.0,62,0.00,SCT,,0.00,380.0,WeatherDisplay:10.37,2013-08-29 22:06:00,
2013-08-29 17:11:00,92.4,77.5,29.94,ESE,104,4.6,4.6,62,0.00,SCT,,0.00,366.0,WeatherDisplay:10.37,2013-08-29 22:11:00,
2013-08-29 17:16:00,92.6,77.7,29.94,ESE,104,0.0,0.0,62,0.00,SCT,,0.00,345.0,WeatherDisplay:10.37,2013-08-29 22:16:00,
2013-08-29 17:21:00,92.7,76.8,29.93,ESE,107,0.0,0.0,60,0.00,SCT,,0.00,329.0,WeatherDisplay:10.37,2013-08-29 22:21:00,
2013-08-29 17:26:00,92.6,77.2,29.93,ESE,107,0.0,0.0,61,0.00,SCT,,0.00,313.0,WeatherDisplay:10.37,2013-08-29 22:26:00,
2013-08-29 17:31:00,92.6,77.7,29.93,ESE,106,0.0,0.0,62,0.00,SCT,,0.00,297.0,WeatherDisplay:10.37,2013-08-29 22:31:00,
2013-08-29 17:36:00,92.5,77.1,29.93,East,94,0.0,0.0,61,0.00,SCT,,0.00,283.0,WeatherDisplay:10.37,2013-08-29 22:36:00,
2013-08-29 17:41:00,92.6,77.2,29.93,East,94,0.0,0.0,61,0.00,SCT,,0.00,272.0,WeatherDisplay:10.37,2013-08-29 22:41:00,
2013-08-29 17:46:00,92.6,77.2,29.93,East,94,1.2,0.0,61,0.00,SCT,,0.00,255.0,WeatherDisplay:10.37,2013-08-29 22:46:00,
2013-08-29 17:51:00,92.6,77.2,29.92,East,94,3.5,3.5,61,0.00,SCT,,0.00,241.0,WeatherDisplay:10.37,2013-08-29 22:51:00,
2013-08-29 17:56:00,92.6,77.2,29.92,East,94,0.0,0.0,61,0.00,SCT,,0.00,227.0,WeatherDisplay:10.37,2013-08-29 22:56:00,
2013-08-29 18:01:00,92.6,76.7,29.93,East,91,3.5,3.5,60,0.00,SCT,,0.00,207.0,WeatherDisplay:10.37,2013-08-29 23:01:00,
2013-08-29 18:06:00,92.6,76.7,29.92,SE,126,1.2,0.0,60,0.00,SCT,,0.00,192.0,WeatherDisplay:10.37,2013-08-29 23:06:00,
2013-08-29 18:11:00,92.6,76.7,29.93,SE,126,0.0,0.0,60,0.00,SCT,,0.00,178.0,WeatherDisplay:10.37,2013-08-29 23:11:00,
2013-08-29 18:16:00,92.0,76.6,29.93,ESE,115,0.0,0.1,61,0.00,SCT,,0.00,165.0,WeatherDisplay:10.37,2013-08-29 23:16:00,
2013-08-29 18:21:00,91.0,76.2,29.93,ENE,75,1.2,0.0,62,0.00,BKN,,0.00,148.0,WeatherDisplay:10.37,2013-08-29 23:21:00,
2013-08-29 18:26:00,90.4,75.6,29.93,ENE,69,3.0,3.0,62,0.00,BKN,,0.00,137.0,WeatherDisplay:10.37,2013-08-29 23:26:00,
2013-08-29 18:31:00,89.7,75.9,29.93,ENE,71,1.2,0.0,64,0.00,BKN,,0.00,121.0,WeatherDisplay:10.37,2013-08-29 23:31:00,
2013-08-29 18:36:00,89.0,75.7,29.93,ENE,71,2.3,2.3,65,0.00,BKN,,0.00,107.0,WeatherDisplay:10.37,2013-08-29 23:36:00,
2013-08-29 18:41:00,88.4,76.0,29.93,ENE,71,0.0,0.0,67,0.00,BKN,,0.00,93.0,WeatherDisplay:10.37,2013-08-29 23:41:00,
2013-08-29 18:46:00,88.3,75.9,29.93,ENE,71,0.0,0.0,67,0.00,BKN,,0.00,79.0,WeatherDisplay:10.37,2013-08-29 23:46:00,
2013-08-29 18:51:00,88.2,76.3,29.93,ENE,71,0.0,0.0,68,0.00,BKN,,0.00,67.0,WeatherDisplay:10.37,2013-08-29 23:51:00,
2013-08-29 18:56:00,88.4,76.5,29.93,ENE,71,0.0,0.0,68,0.00,BKN,,0.00,54.0,WeatherDisplay:10.37,2013-08-29 23:56:00,
2013-08-29 19:01:00,88.4,76.5,29.93,ENE,71,0.0,0.0,68,0.00,BKN,,0.00,46.0,WeatherDisplay:10.37,2013-08-30 00:01:00,
2013-08-29 19:06:00,88.3,75.9,29.93,ENE,71,0.0,0.0,67,0.00,BKN,,0.00,37.0,WeatherDisplay:10.37,2013-08-30 00:06:00,
2013-08-29 19:11:00,88.1,76.2,29.93,ENE,71,0.0,0.0,68,0.00,BKN,,0.00,30.0,WeatherDisplay:10.37,2013-08-30 00:11:00,
2013-08-29 19:16:00,88.0,76.1,29.93,ENE,71,0.0,0.0,68,0.00,BKN,,0.00,19.0,WeatherDisplay:10.37,2013-08-30 00:16:00,
2013-08-29 19:21:00,87.8,75.9,29.93,ENE,71,0.0,0.0,68,0.00,BKN,,0.00,14.0,WeatherDisplay:10.37,2013-08-30 00:21:00,
2013-08-29 19:26:00,87.4,76.0,29.93,ENE,71,0.0,0.0,69,0.00,BKN,,0.00,11.0,WeatherDisplay:10.37,2013-08-30 00:26:00,
2013-08-29 19:31:00,87.1,75.7,29.94,ENE,71,0.0,0.0,69,0.00,BKN,,0.00,7.0,WeatherDisplay:10.37,2013-08-30 00:31:00,
2013-08-29 19:36:00,86.9,75.5,29.93,ENE,71,0.0,0.0,69,0.00,BKN,,0.00,5.0,WeatherDisplay:10.37,2013-08-30 00:36:00,
2013-08-29 19:41:00,86.7,75.7,29.93,ENE,71,0.0,0.0,70,0.00,BKN,,0.00,0.0,WeatherDisplay:10.37,2013-08-30 00:41:00,
2013-08-29 19:46:00,86.4,75.5,29.93,ENE,71,0.0,0.0,70,0.00,BKN,,0.00,0.0,WeatherDisplay:10.37,2013-08-30 00:46:00,
2013-08-29 19:51:00,86.1,75.2,29.93,ENE,71,0.0,0.0,70,0.00,BKN,,0.00,0.0,WeatherDisplay:10.37,2013-08-30 00:51:00,
2013-08-29 19:56:00,85.6,74.7,29.93,ENE,71,0.0,0.0,70,0.00,BKN,,0.00,0.0,WeatherDisplay:10.37,2013-08-30 00:56:00,
2013-08-29 20:01:00,85.2,74.7,29.93,ENE,71,0.0,0.0,71,0.00,BKN,,0.00,0.0,WeatherDisplay:10.37,2013-08-30 01:01:00,
2013-08-29 20:06:00,84.7,74.3,29.94,ENE,71,0.0,0.0,71,0.00,BKN,,0.00,0.0,WeatherDisplay:10.37,2013-08-30 01:06:00,
2013-08-29 20:11:00,84.4,74.0,29.94,ENE,71,0.0,0.0,71,0.00,BKN,,0.00,0.0,WeatherDisplay:10.37,2013-08-30 01:11:00,
2013-08-29 20:16:00,84.0,74.0,29.94,ENE,71,0.0,0.0,72,0.00,BKN,,0.00,0.0,WeatherDisplay:10.37,2013-08-30 01:16:00,
2013-08-29 20:21:00,83.6,74.0,29.94,ENE,71,0.0,0.0,73,0.00,BKN,,0.00,0.0,WeatherDisplay:10.37,2013-08-30 01:21:00,
2013-08-29 20:26:00,83.3,73.7,29.94,ENE,71,0.0,0.0,73,0.00,BKN,,0.00,0.0,WeatherDisplay:10.37,2013-08-30 01:26:00,
2013-08-29 20:31:00,82.9,73.8,29.94,ENE,71,0.0,0.0,74,0.00,BKN,,0.00,0.0,WeatherDisplay:10.37,2013-08-30 01:31:00,
2013-08-29 20:36:00,82.6,73.9,29.94,ENE,71,0.0,0.0,75,0.00,BKN,,0.00,0.0,WeatherDisplay:10.37,2013-08-30 01:36:00,
2013-08-29 20:41:00,82.3,73.6,29.94,East,80,0.0,0.0,75,0.00,BKN,,0.00,0.0,WeatherDisplay:10.37,2013-08-30 01:41:00,
2013-08-29 20:46:00,81.9,73.6,29.93,East,80,0.0,0.0,76,0.00,BKN,,0.00,0.0,WeatherDisplay:10.37,2013-08-30 01:46:00,
2013-08-29 20:51:00,81.6,73.3,29.93,SE,129,0.0,0.0,76,0.00,BKN,,0.00,0.0,WeatherDisplay:10.37,2013-08-30 01:51:00,
2013-08-29 20:56:00,81.3,73.4,29.93,SE,129,0.0,0.0,77,0.00,BKN,,0.00,0.0,WeatherDisplay:10.37,2013-08-30 01:56:00,
2013-08-29 21:01:00,81.0,73.5,29.93,SE,129,0.0,0.0,78,0.00,BKN,,0.00,0.0,WeatherDisplay:10.37,2013-08-30 02:01:00,
2013-08-29 21:06:00,80.7,73.2,29.94,SE,129,0.0,0.0,78,0.00,BKN,,0.00,0.0,WeatherDisplay:10.37,2013-08-30 02:06:00,
2013-08-29 21:11:00,80.4,73.3,29.94,SE,129,0.0,0.0,79,0.00,BKN,,0.00,0.0,WeatherDisplay:10.37,2013-08-30 02:11:00,
2013-08-29 21:16:00,80.2,73.1,29.94,SE,129,0.0,0.0,79,0.00,BKN,,0.00,0.0,WeatherDisplay:10.37,2013-08-30 02:16:00,
2013-08-29 21:21:00,79.9,72.8,29.93,SE,129,0.0,0.0,79,0.00,BKN,,0.00,0.0,WeatherDisplay:10.37,2013-08-30 02:21:00,
2013-08-29 21:26:00,79.7,73.0,29.93,SE,130,0.0,0.0,80,0.00,BKN,,0.00,0.0,WeatherDisplay:10.37,2013-08-30 02:26:00,
2013-08-29 21:32:00,79.4,73.1,29.93,ESE,110,0.0,0.0,81,0.00,BKN,,0.00,0.0,WeatherDisplay:10.37,2013-08-30 02:32:00,
2013-08-29 21:37:00,79.1,73.1,29.93,ESE,110,2.3,0.0,82,0.00,BKN,,0.00,0.0,WeatherDisplay:10.37,2013-08-30 02:37:00,
2013-08-29 21:42:00,78.9,72.9,29.93,ESE,110,0.0,0.0,82,0.00,BKN,,0.00,0.0,WeatherDisplay:10.37,2013-08-30 02:42:00,
2013-08-29 21:47:00,78.7,72.7,29.93,ESE,119,3.5,0.0,82,0.00,BKN,,0.00,0.0,WeatherDisplay:10.37,2013-08-30 02:47:00,
2013-08-29 21:52:00,78.5,72.9,29.93,SE,126,0.0,1.0,83,0.00,BKN,,0.00,0.0,WeatherDisplay:10.37,2013-08-30 02:52:00,
2013-08-29 21:57:00,78.3,72.7,29.93,SE,126,3.5,3.5,83,0.00,BKN,,0.00,0.0,WeatherDisplay:10.37,2013-08-30 02:57:00,
2013-08-29 22:02:00,78.0,72.8,29.93,SE,125,0.0,0.0,84,0.00,BKN,,0.00,0.0,WeatherDisplay:10.37,2013-08-30 03:02:00,
2013-08-29 22:07:00,77.8,72.6,29.92,SE,129,0.0,0.0,84,0.00,BKN,,0.00,0.0,WeatherDisplay:10.37,2013-08-30 03:07:00,
2013-08-29 22:12:00,77.7,72.5,29.93,SE,129,0.0,0.0,84,0.00,BKN,,0.00,0.0,WeatherDisplay:10.37,2013-08-30 03:12:00,
2013-08-29 22:17:00,77.5,72.3,29.93,SE,129,0.0,0.0,84,0.00,BKN,,0.00,0.0,WeatherDisplay:10.37,2013-08-30 03:17:00,
2013-08-29 22:22:00,77.4,72.2,29.93,SE,129,0.0,0.0,84,0.00,BKN,,0.00,0.0,WeatherDisplay:10.37,2013-08-30 03:22:00,
2013-08-29 22:27:00,77.2,72.3,29.93,SE,129,0.0,0.0,85,0.00,BKN,,0.00,0.0,WeatherDisplay:10.37,2013-08-30 03:27:00,
2013-08-29 22:32:00,77.1,72.2,29.93,SE,129,0.0,0.0,85,0.00,BKN,,0.00,0.0,WeatherDisplay:10.37,2013-08-30 03:32:00,
2013-08-29 22:37:00,77.0,72.1,29.93,SE,129,0.0,0.0,85,0.00,BKN,,0.00,0.0,WeatherDisplay:10.37,2013-08-30 03:37:00,
2013-08-29 22:42:00,76.9,72.4,29.93,SE,129,0.0,0.0,86,0.00,BKN,,0.00,0.0,WeatherDisplay:10.37,2013-08-30 03:42:00,
2013-08-29 22:47:00,76.7,72.2,29.93,SE,129,0.0,0.0,86,0.00,BKN,,0.00,0.0,WeatherDisplay:10.37,2013-08-30 03:47:00,
2013-08-29 22:52:00,76.6,72.1,29.93,SE,129,0.0,0.0,86,0.00,BKN,,0.00,0.0,WeatherDisplay:10.37,2013-08-30 03:52:00,
2013-08-29 22:57:00,76.5,72.3,29.93,SE,129,0.0,0.0,87,0.00,BKN,,0.00,0.0,WeatherDisplay:10.37,2013-08-30 03:57:00,
2013-08-29 23:01:00,76.4,72.2,29.92,SE,129,0.0,0.0,87,0.00,BKN,,0.00,0.0,WeatherDisplay:10.37,2013-08-30 04:01:00,
2013-08-29 23:02:00,76.4,72.2,29.92,SE,129,0.0,0.0,87,0.00,BKN,,0.00,0.0,WeatherDisplay:10.37,2013-08-30 04:02:00,
2013-08-29 23:07:00,76.2,72.0,29.93,SE,129,0.0,0.0,87,0.00,BKN,,0.00,0.0,WeatherDisplay:10.37,2013-08-30 04:07:00,
2013-08-29 23:12:00,76.0,72.2,29.93,SE,129,0.0,0.0,88,0.00,BKN,,0.00,0.0,WeatherDisplay:10.37,2013-08-30 04:12:00,
2013-08-29 23:17:00,75.9,72.1,29.92,SE,129,0.0,0.0,88,0.00,BKN,,0.00,0.0,WeatherDisplay:10.37,2013-08-30 04:17:00,
2013-08-29 23:22:00,75.8,72.0,29.93,SE,129,0.0,0.0,88,0.00,BKN,,0.00,0.0,WeatherDisplay:10.37,2013-08-30 04:22:00,
2013-08-29 23:27:00,75.7,71.9,29.93,SE,129,0.0,0.0,88,0.00,BKN,,0.00,0.0,WeatherDisplay:10.37,2013-08-30 04:27:00,
2013-08-29 23:32:00,75.6,71.8,29.93,SE,129,0.0,0.0,88,0.00,BKN,,0.00,0.0,WeatherDisplay:10.37,2013-08-30 04:32:00,
2013-08-29 23:37:00,75.5,71.7,29.93,SE,129,0.0,0.0,88,0.00,BKN,,0.00,0.0,WeatherDisplay:10.37,2013-08-30 04:37:00,
2013-08-29 23:42:00,75.3,71.5,29.93,SE,129,0.0,0.0,88,0.00,BKN,,0.00,0.0,WeatherDisplay:10.37,2013-08-30 04:42:00,
2013-08-29 23:47:00,75.2,71.4,29.93,SE,129,0.0,0.0,88,0.00,BKN,,0.00,0.0,WeatherDisplay:10.37,2013-08-30 04:47:00,
2013-08-29 23:52:00,75.1,71.3,29.93,SE,129,0.0,0.0,88,0.00,BKN,,0.00,0.0,WeatherDisplay:10.37,2013-08-30 04:52:00,
2013-08-29 23:57:00,75.0,71.2,29.93,SE,129,0.0,0.0,88,0.00,BKN,,0.00,0.0,WeatherDisplay:10.37,2013-08-30 04:57:00,